Overview Statistics Trail Chart Weather Telemetry Raw packets
 

This is the latest recevied weather packets stored in our database for station/object K0QED. If no packets are shown the sender has not sent any weather packets the latest 10 day(s).

<< 33 34 35 36 37 38 39 >>
Time Temp. Humidity Pressure Rain* Wind** Luminosity Snow
1788396708 23.89° C 31% 1022.2 hPa 0 mm - 10 W/m² -
1788396403 23.89° C 31% 1022.2 hPa 0 mm - 12 W/m² -
1788396098 23.89° C 30% 1022.4 hPa 0 mm - 15 W/m² -
1788395794 24.44° C 31% 1022.2 hPa 0 mm - 18 W/m² -
1788395489 24.44° C 30% 1022 hPa 0 mm - 32 W/m² -
1788395184 25° C 30% 1022 hPa 0 mm - 31 W/m² -
1788394878 25° C 29% 1022 hPa 0 mm - 27 W/m² -
1788394573 25° C 29% 1022.4 hPa 0 mm - 26 W/m² -
1788394267 24.44° C 31% 1022.1 hPa 0 mm - 27 W/m² -
1788393963 24.44° C 30% 1022.1 hPa 0 mm - 29 W/m² -
1788393662 25° C 30% 1022.2 hPa 0 mm - 32 W/m² -
1788393361 25° C 30% 1022.1 hPa 0 mm - 25 W/m² -
1788393056 25° C 30% 1022.1 hPa 0 mm - 29 W/m² -
1788392750 25° C 29% 1022.4 hPa 0 mm - 34 W/m² -
1788392449 25.56° C 29% 1022.2 hPa 0 mm - 34 W/m² -
1788392144 25.56° C 28% 1022.6 hPa 0 mm - 41 W/m² -
1788391839 26.11° C 27% 1022.2 hPa 0 mm - 49 W/m² -
1788391538 26.67° C 27% 1022.4 hPa 0 mm - 36 W/m² -
1788391232 27.22° C 27% 1022.4 hPa 0 mm - 241 W/m² -
1788390927 27.78° C 26% 1022.4 hPa 0 mm - 236 W/m² -
1788390627 27.22° C 26% 1022.2 hPa 0 mm - 246 W/m² -
1788390321 27.22° C 28% 1022.5 hPa 0 mm - 271 W/m² -
1788390021 26.67° C 28% 1022.4 hPa 0 mm - 71 W/m² -
1788389716 27.22° C 27% 1022.6 hPa 0 mm - 61 W/m² -
1788389416 27.78° C 27% 1022.5 hPa 0 mm - 340 W/m² -

* Rain latest hour (hover to see other rain measurements)
** Current wind speed in m/s (hover to see current wind gust speed)